星链-4496 (STARLINK-4496 )

导读

STARLINK-4496是美国SpaceX公司星链星座的成员,于2022年8月10日发射入轨,属于星链低轨互联网卫星星座组网卫星。星链星座旨在构建全球覆盖的卫星互联网通信系统,该卫星承担为全球偏远地区、海上、航空等场景提供宽带互联网接入服务的任务,依托低轨部署降低通信时延,支撑星座服务能力扩展。

基本信息
目录编号:
53412
目录名称:
STARLINK-4496
国际标识:
2022-097AA
轨道中心:
EARTH
卫星名称:
星链-4496
卫星全名:
星链-4496 (STARLINK-4496 )
卫星状态:
在轨 (已飞行1486 天)
发射日期:
2022-08-10 UTC
国别 :
美国 (US)
星等 :
--
轨道信息
数据来源 国际轨道数据 AOE轨道数据
星历时间 2026-09-04T14:00:02+0800
11小时前
查看轨道信息
2026-08-29T11:00:00+0800
6天前
查看轨道信息
半长轴 6897.766km 6917.905km
偏心率 0.0001876 0.0001401
轨道倾角 53.160° 53.161°
近地点辐角 59.990° 78.624°
升交点赤经 31.868° 59.498°
平近点角 177.517° 300.553°
近地点 518.334km 538.798km
远地点 520.924km 540.738km
周期 95.022分钟 95.438分钟
每日圈数 15.154447 15.088322
详细信息
固有亮度:
5
最大亮度:
2.5
卫星平台:
Starlink v1.5
覆盖范围:
全球
运营商:
太空探索技术公司
运营商所在国:
美国
制造商(研发单位):
太空探索技术公司
制造商所在国:
美国
使用方式:
暂无
卫星简介
星链(Starlink)计划是由太空探索技术公司(SpaceX)提出的一个巨型低轨卫星互联网星座项目,计划在2019年至2024年间在太空搭建由约1.2万颗卫星组成的“星链”网络,其中1584颗将部署在地球上空550千米处的近地轨道,并从2020年开始工作。该卫星仍在工作。
2D轨道图
3D轨道图
轨道高度分析图
轨道倾角分析图
轨道综合分析图
查看轨道综合分析图
交会数据列表
事件ID 空间交会对象 最接近时刻(TCA) 交会距离 交会风险概率(CRP) 交会风险指数(CRI) 操作
CDM_260907-030405-341206-187321
2026-09-07T
03:04:46+0000
1.020 km
极远距离
1.821218E-5 中风险 0.6
CDM_260906-151304-318805-341221
S-NET A (43188)
2026-09-06T
15:13:05+0000
2.404 km
极远距离
1.800537E-6 低风险 0.4
CDM_260906-144605-341206-844521
2026-09-06T
14:46:36+0000
2.540 km
极远距离
1.699412E-6 低风险 0.4
CDM_260905-071005-341205-910021
2026-09-05T
07:10:12+0000
2.264 km
极远距离
1.22422E-6 低风险 0.37